{"data":{"norad_id":59801,"epoch":"2026-05-24T23:52:22.410048Z","epoch_age_seconds":75354,"freshness":"FRESH","line1":"1 59801U 24093V   26144.99470382 -.00000352  00000+0 -32501-5 0  9997","line2":"2 59801  43.0013 138.1032 0001664 292.2605  67.8070 15.27567869114366","mean_motion":15.27567869,"eccentricity":0.0001664,"inclination_deg":43.0013,"raan_deg":138.1032,"arg_perigee_deg":292.2605,"mean_anomaly_deg":67.807,"bstar":-3.2501e-6,"rev_number":11436,"period_min":94.26749732191399,"perigee_km":481.94371344732,"apogee_km":484.22712826898,"semimajor_km":6861.2224208581,"source":"CELESTRAK","updated_at":"2026-05-25T13:38:19.083931Z"}}